FENGYUN 1C DEB, 31364

Orbit data source: Space-Track

FENGYUN 1C DEB, 31364 is space debris in SSO originally from a launch on Mon, 10 May 1999 UTC launched from the Taiyaun Space Center, China (TSC). Fengyun 1C debris stems from the Chinese weather satellite Fengyun-1C, which was intentionally destroyed by a Chinese anti-satellite missile in 2007. This event dramatically increased the amount of space debris, with thousands of trackable fragments posing hazards to satellites and human spaceflight. The Fengyun 1C debris cloud has become a focal point in discussions about space sustainability and the need for international regulations to prevent the creation of new debris.

Loading next visibility...
Identifier
31364, 1999-025BRU
Orbit
SSO
Country
Flag of CNCN / PRC
Related business
Manufacturer
Unknown
Mission
Spacecraft
Bus & Motor
Unknown
Mass
Unknown
Launch date (UTC)
1999-05-10 (27 years ago)
Launch vehicle
Unknown
Launch site
Taiyaun Space Center, China (TSC)
Object type
Payload
Rocket body
Debris
Shape & HBR
Unknown shape, 0.1 m
Radar Cross Section
Medium (>0.1 m² and <1 m²)

Expand to show TLE details & history
Last TLE update: 2 days ago

TLE from 2 days ago
0 FENGYUN 1C DEB
1 31364U 99025BRU 26165.10300149  .00003597  00000-0  17596-2 0  9994
2 31364  99.2675 296.9379 0087789 352.7296   7.2597 14.16589928974716
Epoch: 2026-06-14T02:28Z
TLE epoch observation values (Epoch: 2026-06-14T02:28:19.328Z)
Latitude
-0.00011°
Longitude
-2.55117°
Altitude
776.964 km
Speed
7.498 km/s
True Right ascension
19h 47m 45s
True Declination
0° 00' 00"
Sunlit
Object was in full shadow at epoch
Visualization orbit readout
Latitude
Unknown
Longitude
Unknown
Altitude
Unknown
Speed
Unknown
Apparent Right ascension
Unknown
Apparent Declination
Unknown
Sunlit
N/A
Visualization observer readout
Local Sidereal Time
02:27:29
Azimuth
Unknown
Elevation
Unknown
Doppler factor
Unknown
Orbital elements
Apogee altitude
897.414 km
Perigee altitude
770.783 km
Semi-major axis
7,212.236 km
Eccentricity
0.00878
Inclination
99.2675°
RAAN
296.9379°
Arg. of periapsis
352.7296°
True anomaly
7.38822°
Mean anomaly
7.2597°
Eccentric anomaly
7.32382°
Mean motion
3.54355 °/min
Orbital period
101.59 mins
BSTAR
0.0017596
Loading maneuver chart data...
Computing Atmospheric mass density...
Loading historical data...
Loading historical data...
Loading historical data...
Loading historical data...
Loading historical data...
Loading historical data...
Loading historical data...

Documentation

Showing up to 5 results
|